Back to catalog

STARLINK-32296

AliveCommunicationsVLEO
NORAD 61524·PAYLOAD·🇺🇸 United States

Launched Oct 15, 2024 from Cape Canaveral Space Force Station

Loading…

Next Passes (next 24 hours)

TLE

FreshSource: CelesTrak SupGP

Epoch: Sep 14, 2026, 15:04 UTC

1 61524C 24183R   26257.62826389  .00009183  00000+0  29538-3 0  2579
2 61524  53.1606 343.1544 0001291  75.0826 282.0542 15.31687887    14

Track STARLINK-32296 in real time with AllMySat

Download on the App Store